Time,TemperatureF,DewpointF,PressureIn,WindDirection,WindDirectionDegrees,WindSpeedMPH,WindSpeedGustMPH,Humidity,HourlyPrecipIn,Conditions,Clouds,dailyrainin,SoftwareType,DateUTC
2014-04-24 00:12:00,49.0,36.0,-100.00,South,170,7.0,9.0,60,-99.99,,,-99.99,,2014-04-24 07:12:00,
2014-04-24 00:22:00,49.0,36.0,-100.00,South,170,6.0,10.0,59,-99.99,,,-99.99,,2014-04-24 07:22:00,
2014-04-24 00:42:00,49.0,35.0,-100.00,SSE,150,5.0,8.0,60,-99.99,,,-99.99,,2014-04-24 07:42:00,
2014-04-24 00:52:00,48.0,36.0,-100.00,SE,145,6.0,9.0,62,-99.99,,,-99.99,,2014-04-24 07:52:00,
2014-04-24 01:11:00,47.0,36.0,-100.00,SSE,155,7.0,9.0,63,-99.99,,,-99.99,,2014-04-24 08:11:00,
2014-04-24 01:22:00,48.0,36.0,-100.00,SSE,165,9.0,12.0,63,-99.99,,,-99.99,,2014-04-24 08:22:00,
2014-04-24 01:42:00,48.0,36.0,-100.00,South,170,9.0,11.0,63,-99.99,,,-99.99,,2014-04-24 08:42:00,
2014-04-24 01:53:00,47.0,36.0,-100.00,SSE,155,4.0,9.0,65,-99.99,,,-99.99,,2014-04-24 08:53:00,
2014-04-24 02:12:00,47.0,36.0,-100.00,SSE,155,2.0,4.0,65,-99.99,,,-99.99,,2014-04-24 09:12:00,
2014-04-24 02:22:00,49.0,36.0,-100.00,ESE,115,4.0,6.0,61,-99.99,,,-99.99,,2014-04-24 09:22:00,
2014-04-24 02:43:00,50.0,36.0,-100.00,North,350,1.0,6.0,59,-99.99,,,-99.99,,2014-04-24 09:43:00,
2014-04-24 02:54:00,49.0,37.0,-100.00,NW,315,2.0,6.0,65,-99.99,,,-99.99,,2014-04-24 09:54:00,
2014-04-24 03:13:00,48.0,38.0,-100.00,North,10,1.0,4.0,67,-99.99,,,-99.99,,2014-04-24 10:13:00,
2014-04-24 03:23:00,47.0,37.0,-100.00,NW,320,1.0,4.0,68,-99.99,,,-99.99,,2014-04-24 10:23:00,
2014-04-24 03:43:00,47.0,37.0,-100.00,SSE,150,2.0,4.0,68,-99.99,,,-99.99,,2014-04-24 10:43:00,
2014-04-24 03:54:00,46.0,35.0,-100.00,SE,140,3.0,4.0,66,-99.99,,,-99.99,,2014-04-24 10:54:00,
2014-04-24 04:12:00,45.0,35.0,-100.00,South,175,2.0,4.0,66,-99.99,,,-99.99,,2014-04-24 11:12:00,
2014-04-24 04:22:00,45.0,35.0,-100.00,SSE,160,5.0,7.0,66,-99.99,,,-99.99,,2014-04-24 11:22:00,
2014-04-24 04:42:00,45.0,34.0,-100.00,South,170,3.0,8.0,66,-99.99,,,-99.99,,2014-04-24 11:42:00,
2014-04-24 04:52:00,45.0,34.0,-100.00,SSW,200,2.0,7.0,66,-99.99,,,-99.99,,2014-04-24 11:52:00,